Regional Weather Roundup
Issued by NWS

Home | Current Version | Previous Version | Text Only | Print | Product List | Glossary On
Versions: 1 2 3 4 5 6 7 8 9 10 11 12 13 14 15 16 17 18 19 20 21 22 23 24 25 26 27 28
000
ASUS45 KBOU 260810
RWRCO

WEATHER ROUNDUP FOR COLORADO
NATIONAL WEATHER SERVICE DENVER/BOULDER CO
200 AM MDT MON SEP 26 2016

NOTE: "FAIR" INDICATES FEW OR NO CLOUDS BELOW 12000 FEET WITH NO
SIGNIFICANT WEATHER AND/OR OBSTRUCTIONS TO VISIBILITY.

COZ001>005-013-030-031-260900-
...NORTHWEST COLORADO...

CITY           SKY/WX    TMP DP  RH WIND       PRES   REMARKS
CRAIG          FAIR      34  31  88 CALM      30.51S
HAYDEN         FAIR      41  30  65 E10       30.50F
MEEKER         FAIR      37  34  89 E6        30.51S
MOUNT WERNER   NOT AVBL
STEAMBOAT SPGS FAIR      36  33  87 CALM      30.52F
WALDEN           N/A     30  25  80 SE6       30.57F WCI  24
$$

COZ006>008-011-260900-
...WEST CENTRAL VALLEYS...

CITY           SKY/WX    TMP DP  RH WIND       PRES   REMARKS
GRAND JUNCTION FAIR      50  38  63 E7        30.40R
MONTROSE       FAIR      45  36  70 SE9       30.47S
EAGLE          FAIR      39  30  70 CALM      30.55S
RIFLE          FAIR      44  40  85 S3        30.47S
DELTA          NOT AVBL
NUCLA          FAIR      46  34  61 E8        30.47S
$$

COZ017>023-064>068-260900-
...SOUTHWEST COLORADO...

CITY           SKY/WX    TMP DP  RH WIND       PRES   REMARKS
DURANGO        FAIR      41  35  79 NE5       30.46R
CORTEZ         FAIR      41  35  79 E5        30.42R
PAGOSA SPRINGS FAIR      41  33  72 CALM      30.51R
TELLURIDE      FAIR      40  35  83 E5        30.59R
WOLF CREEK PAS FAIR      36  27  69 MISG      30.73S
$$

COZ009-010-012-014-032>034-037-058>063-260900-
...CENTRAL COLORADO...

CITY           SKY/WX    TMP DP  RH WIND       PRES   REMARKS
ASPEN          FAIR      36  30  79 SW7       30.54F
BUENA VISTA    FAIR      36  26  67 W5        30.57S
COPPER MTN     FAIR      37  21  52 SW7       30.72S
BERTHOUD PASS  FAIR      28  14  54 N18       30.70F WCI  16
COTTONWOOD PAS FAIR      43  28  56 W3        30.63F
GUNNISON       FAIR      34  28  80 CALM      30.55S
KREMMLING      FAIR      32  25  74 CALM      30.57S
LEADVILLE      FAIR      31  22  69 E3        30.62S
MONARCH PASS   FAIR      36  27  69 E3        30.81S
SALIDA         FAIR      41  30  65 CALM      30.64R
SUNLIGHT       FAIR      37  32  81 NE3       30.69S
WILKERSON PASS FAIR      34  27  75 CALM      30.71S
$$

COZ069>075-260900-
...SAN LUIS VALLEY/SANGRE DE CRISTO MOUNTAINS...

CITY           SKY/WX    TMP DP  RH WIND       PRES   REMARKS
ALAMOSA        FAIR      38  29  70 E7        30.50R
LA VETA PASS   FAIR      34  28  80 MISG      30.63R
SAGUACHE       NOT AVBL
$$

COZ035-036-038>040-260900-
...NORTHERN COLORADO FRONT RANGE...

CITY           SKY/WX    TMP DP  RH WIND       PRES   REMARKS
DENVER INTL AP FAIR      48  29  47 SW10      30.44S
DMNS CITY PARK NOT AVBL
AURORA         CLEAR     43  30  59 S8        30.45F
FRONT RANGE AP NOT AVBL
ERIE MUNI ARPT FAIR      41  33  72 CALM      30.44S
BOULDER MUN AP FAIR      48  36  61 SW3       30.43F
CENTENNIAL     FAIR      47  30  51 S7        30.45F
BROOMFIELD     FAIR      50  32  50 NW7       30.45F
FORT COLLINS   FAIR      48  36  61 N6        30.43F
LONGMONT       FAIR      47  35  62 CALM      30.45F
$$

COZ041-046-047-076>085-087-088-260900-
...PIKES PEAK/PALMER DIVIDE AND SOUTHERN FOOTHILLS...

CITY           SKY/WX    TMP DP  RH WIND       PRES   REMARKS
COLO. SPRINGS  FAIR      48  27  44 SW5       30.52R
A. F. ACADEMY  FAIR      37  29  72 N5        30.50F
SCHRIEVER AFB  NOT AVBL
ELLICOTT       NOT AVBL
FALCON         FAIR      42  26  55 CALM      30.53S
FORT CARSON    FAIR      50  28  42 SW1       30.49S
LIMON          FAIR      31  23  72 N6        30.47F WCI  25
MONUMENT HILL  FAIR      37  27  65 SW7       30.52S
TRINIDAD       FAIR      46  32  58 W9        30.48S
$$

COZ042>045-048>051-090-091-260900-
...NORTHEAST COLORADO...

CITY           SKY/WX    TMP DP  RH WIND       PRES   REMARKS
GREELEY ARPT   FAIR      43  36  75 N8        30.43F
AKRON          FAIR      46  31  55 S9        30.42S
BURLINGTON     FAIR      42  35  76 W8        30.42F
WRAY           FAIR      41  32  70 W6        30.41S
STERLING       FAIR      36  32  87 W3        30.40S
HOLYOKE        FAIR      41  36  81 W7        30.40R
FORT MORGAN    FAIR      41  30  65 W5        30.43S
$$

COZ086-089-092>099-260900-
...SOUTHEAST COLORADO...

CITY           SKY/WX    TMP DP  RH WIND       PRES   REMARKS
PUEBLO         FAIR      49  28  44 NE7       30.45S
LA JUNTA       FAIR      48  32  53 N3        30.44S
LAMAR          FAIR      41  29  62 SW3       30.40F
SPRINGFIELD    NOT AVBL
$$




USA.gov is the U.S. government's official web portal to all federal, state and local government web resources and services.